Time,TemperatureF,DewpointF,PressureIn,WindDirection,WindDirectionDegrees,WindSpeedMPH,WindSpeedGustMPH,Humidity,HourlyPrecipIn,Conditions,Clouds,dailyrainin,SolarRadiationWatts/m^2,SoftwareType,DateUTC
2013-01-06 13:12:00,49.0,42.0,-100.00,NW,312,9.0,17.0,76,0.00,,,0.44,172.000000,,2013-01-06 21:12:00,
2013-01-06 13:33:00,49.0,42.0,-100.00,NW,312,9.0,17.0,76,0.00,,,0.44,172.000000,,2013-01-06 21:33:00,
2013-01-06 13:43:00,49.0,42.0,-100.00,NW,312,9.0,17.0,76,0.00,,,0.44,172.000000,,2013-01-06 21:43:00,
2013-01-06 13:53:00,49.0,42.0,-100.00,NW,312,9.0,17.0,76,0.00,,,0.44,172.000000,,2013-01-06 21:53:00,
2013-01-06 14:02:00,49.0,42.0,-100.00,NW,312,9.0,17.0,76,0.00,,,0.44,172.000000,,2013-01-06 22:02:00,
2013-01-06 14:12:00,50.0,43.0,-100.00,NW,315,12.0,18.0,78,0.00,,,0.44,182.000000,,2013-01-06 22:12:00,
2013-01-06 14:33:00,50.0,43.0,-100.00,NW,315,12.0,18.0,78,0.00,,,0.44,182.000000,,2013-01-06 22:33:00,
2013-01-06 14:43:00,50.0,43.0,-100.00,NW,315,12.0,18.0,78,0.00,,,0.44,182.000000,,2013-01-06 22:43:00,
2013-01-06 14:52:00,50.0,43.0,-100.00,NW,315,12.0,18.0,78,0.00,,,0.44,182.000000,,2013-01-06 22:52:00,
2013-01-06 15:02:00,50.0,43.0,-100.00,NW,315,12.0,18.0,78,0.00,,,0.44,182.000000,,2013-01-06 23:02:00,
2013-01-06 15:12:00,50.0,44.0,-100.00,NW,311,12.0,18.0,80,0.00,,,0.44,263.000000,,2013-01-06 23:12:00,
2013-01-06 15:33:00,50.0,44.0,-100.00,NW,311,12.0,18.0,80,0.00,,,0.44,263.000000,,2013-01-06 23:33:00,
2013-01-06 15:43:00,50.0,44.0,-100.00,NW,311,12.0,18.0,80,0.00,,,0.44,263.000000,,2013-01-06 23:43:00,
2013-01-06 15:53:00,50.0,44.0,-100.00,NW,311,12.0,18.0,80,0.00,,,0.44,263.000000,,2013-01-06 23:53:00,
2013-01-06 16:02:00,50.0,44.0,-100.00,NW,311,12.0,18.0,80,0.00,,,0.44,263.000000,,2013-01-07 00:02:00,
2013-01-06 16:12:00,50.0,43.0,-100.00,NW,313,10.0,16.0,78,0.00,,,0.44,87.000000,,2013-01-07 00:12:00,
2013-01-06 16:33:00,50.0,43.0,-100.00,NW,313,10.0,16.0,78,0.00,,,0.44,87.000000,,2013-01-07 00:33:00,
2013-01-06 16:43:00,50.0,43.0,-100.00,NW,313,10.0,16.0,78,0.00,,,0.44,87.000000,,2013-01-07 00:43:00,
2013-01-06 16:53:00,50.0,43.0,-100.00,NW,313,10.0,16.0,78,0.00,,,0.44,87.000000,,2013-01-07 00:53:00,
2013-01-06 17:02:00,50.0,43.0,-100.00,NW,313,10.0,16.0,78,0.00,,,0.44,87.000000,,2013-01-07 01:02:00,
2013-01-06 17:12:00,49.0,43.0,-100.00,NW,317,14.0,25.0,80,0.00,,,0.44,29.000000,,2013-01-07 01:12:00,
2013-01-06 17:43:00,49.0,43.0,-100.00,NW,317,14.0,25.0,80,0.00,,,0.44,29.000000,,2013-01-07 01:43:00,
2013-01-06 17:53:00,49.0,43.0,-100.00,NW,317,14.0,25.0,80,0.00,,,0.44,29.000000,,2013-01-07 01:53:00,
2013-01-06 18:02:00,49.0,43.0,-100.00,NW,317,14.0,25.0,80,0.00,,,0.44,29.000000,,2013-01-07 02:02:00,
2013-01-06 18:12:00,47.0,41.0,-100.00,NW,309,10.0,16.0,79,0.00,,,0.44,0.000000,,2013-01-07 02:12:00,
2013-01-06 18:43:00,47.0,41.0,-100.00,NW,309,10.0,16.0,79,0.00,,,0.44,0.000000,,2013-01-07 02:43:00,
2013-01-06 18:53:00,47.0,41.0,-100.00,NW,309,10.0,16.0,79,0.00,,,0.44,0.000000,,2013-01-07 02:53:00,
2013-01-06 19:02:00,47.0,41.0,-100.00,NW,309,10.0,16.0,79,0.00,,,0.44,0.000000,,2013-01-07 03:02:00,
2013-01-06 19:12:00,47.0,42.0,-100.00,NW,315,8.0,18.0,82,0.00,,,0.44,0.000000,,2013-01-07 03:12:00,
2013-01-06 19:33:00,47.0,42.0,-100.00,NW,315,8.0,18.0,82,0.00,,,0.44,0.000000,,2013-01-07 03:33:00,
2013-01-06 19:43:00,47.0,42.0,-100.00,NW,315,8.0,18.0,82,0.00,,,0.44,0.000000,,2013-01-07 03:43:00,
2013-01-06 19:53:00,47.0,42.0,-100.00,NW,315,8.0,18.0,82,0.00,,,0.44,0.000000,,2013-01-07 03:53:00,
2013-01-06 20:02:00,47.0,42.0,-100.00,NW,315,8.0,18.0,82,0.00,,,0.44,0.000000,,2013-01-07 04:02:00,
2013-01-06 20:12:00,46.0,42.0,-100.00,WNW,303,10.0,18.0,87,0.00,,,0.43,0.000000,,2013-01-07 04:12:00,
2013-01-06 20:33:00,46.0,42.0,-100.00,WNW,303,10.0,18.0,87,0.00,,,0.43,0.000000,,2013-01-07 04:33:00,
2013-01-06 20:42:00,46.0,42.0,-100.00,WNW,303,10.0,18.0,87,0.00,,,0.43,0.000000,,2013-01-07 04:42:00,
2013-01-06 20:52:00,46.0,42.0,-100.00,WNW,303,10.0,18.0,87,0.00,,,0.43,0.000000,,2013-01-07 04:52:00,
2013-01-06 21:02:00,46.0,42.0,-100.00,WNW,303,10.0,18.0,87,0.00,,,0.43,0.000000,,2013-01-07 05:02:00,
2013-01-06 21:12:00,45.0,42.0,-100.00,NW,305,8.0,14.0,88,0.00,,,0.39,0.000000,,2013-01-07 05:12:00,
2013-01-06 21:33:00,45.0,42.0,-100.00,NW,305,8.0,14.0,88,0.00,,,0.39,0.000000,,2013-01-07 05:33:00,
2013-01-06 21:43:00,45.0,42.0,-100.00,NW,305,8.0,14.0,88,0.00,,,0.39,0.000000,,2013-01-07 05:43:00,
2013-01-06 21:53:00,45.0,42.0,-100.00,NW,305,8.0,14.0,88,0.00,,,0.39,0.000000,,2013-01-07 05:53:00,
2013-01-06 22:02:00,45.0,42.0,-100.00,NW,305,8.0,14.0,88,0.00,,,0.39,0.000000,,2013-01-07 06:02:00,
2013-01-06 22:42:00,45.0,42.0,-100.00,NW,309,11.0,16.0,88,0.00,,,0.36,0.000000,,2013-01-07 06:42:00,
2013-01-06 22:52:00,45.0,42.0,-100.00,NW,309,11.0,16.0,88,0.00,,,0.36,0.000000,,2013-01-07 06:52:00,
2013-01-06 23:02:00,45.0,42.0,-100.00,NW,309,11.0,16.0,88,0.00,,,0.36,0.000000,,2013-01-07 07:02:00,
2013-01-06 23:11:00,45.0,42.0,-100.00,NW,309,11.0,16.0,88,0.00,,,0.36,0.000000,,2013-01-07 07:11:00,
2013-01-06 23:33:00,44.0,41.0,-100.00,WNW,298,11.0,19.0,89,0.00,,,0.33,0.000000,,2013-01-07 07:33:00,
2013-01-06 23:42:00,44.0,41.0,-100.00,WNW,298,11.0,19.0,89,0.00,,,0.33,0.000000,,2013-01-07 07:42:00,
2013-01-06 23:52:00,44.0,41.0,-100.00,WNW,298,11.0,19.0,89,0.00,,,0.33,0.000000,,2013-01-07 07:52:00,